Regional Weather Roundup
Issued by NWS Charleston, SC

Current Version | Previous Version | Graphics & Text | Print | Product List | Glossary On
Versions: 1 2 3 4 5 6 7 8 9 10 11 12 13 14 15 16 17 18 19 20 21 22 23 24 25 26 27 28 29 30 31 32 33 34 35 36 37 38 39 40 41 42 43 44 45 46 47 48 49 50
000 ASUS42 KCHS 171925 RWRCHS REGIONAL WEATHER ROUNDUP NATIONAL WEATHER SERVICE CHARLESTON SC 200 PM EST WED DEC 17 2014 NOTE: "FAIR" INDICATES FEW OR NO CLOUDS BELOW 12,000 FEET WITH NO SIGNIFICANT WEATHER AND/OR OBSTRUCTIONS TO VISIBILITY. NOT ALL STATIONS ARE QUALITY CONTROLLED BY THE NATIONAL WEATHER SERVICE. USE DATA WITH CAUTION...ESPECIALLY DEWPOINT OBSERVATIONS. SCZ027-030-031-034>040-042>050-172000- ...SOUTHEAST SOUTH CAROLINA... CITY SKY/WX TMP DP RH WIND PRES REMARKS N CHARLESTON PTSUNNY 64 41 42 VRB5 30.08F WATERFRONT PRK N/A 59 N/A N/A SE10 N/A MOUNT PLEASANT LGT RAIN 61 45 55 S7 30.08F PINOPOLIS N/A 61 45 55 CALM 29.99F MONCKS CORNER FAIR 64 41 42 CALM 30.08S SUMMERVILLE FAIR 64 41 42 W5 30.09S BEAUFORT MCAS MOSUNNY 63 40 42 SW6 30.09F BEAUFORT ARPT FAIR 63 45 51 S3 30.09S HILTON HEAD IS SUNNY 57 45 62 CALM 30.11F WALTERBORO CLEAR 64 34 32 SW6 30.09S ALLENDALE FAIR 63 41 45 VRB5 30.09S ...SOUTHERN MIDLANDS AND PEE DEE... CITY SKY/WX TMP DP RH WIND PRES REMARKS GEORGETOWN NOT AVBL KINGSTREE NOT AVBL ORANGEBURG SUNNY 61 38 42 VRB5 30.08F BARNWELL FAIR 63 39 42 W7 30.09F AIKEN FAIR 61 37 41 W5 30.11F MANNING NOT AVBL COLUMBIA PTSUNNY 61 37 41 VRB6 30.08F SUMTER SUNNY 61 38 43 VRB5 30.06F FLORENCE SUNNY 61 38 42 W7 30.06F MYRTLE BEACH SUNNY 64 39 39 W8 30.07F N MYRTLE BEACH SUNNY 63 39 41 VRB5 30.05F $$ GAZ063-065-086>088-099>101-113>116-118-119-134>141-150-172000- ...SOUTHEAST GEORGIA... CITY SKY/WX TMP DP RH WIND PRES REMARKS SAVANNAH ARPT MOSUNNY 65 39 38 SW9 30.10F HUNTER AAF SUNNY 63 42 45 VRB2 30.08F FORT STEWART SUNNY 64 41 44 VRB7 30.09F STATESBORO SUNNY 62 42 49 W7 30.10S SYLVANIA CLEAR 61 42 50 CALM 30.10F CLAXTON FAIR 63 45 51 W7 30.10F ...CSRA...CENTRAL AND FAR SOUTHEAST GEORGIA... CITY SKY/WX TMP DP RH WIND PRES REMARKS THOMSON SUNNY 62 44 52 W5 30.13F AUGUSTA-BUSH SUNNY 61 38 42 SW5 30.09F AUGUSTA-DANIEL SUNNY 61 39 44 W7 30.10F SWAINSBORO FAIR 63 43 48 W7 30.11F VIDALIA SUNNY 63 43 48 W7 30.11F EASTMAN FAIR 63 40 43 W7 30.15S HAZLEHURST FAIR 64 43 46 W5 30.11S ALMA SUNNY 63 40 42 NW6 30.11F WAYCROSS SUNNY 66 45 46 W8 30.12S JESUP FAIR 64 45 48 W5 30.11F BAXLEY FAIR 63 41 45 W8 30.12R BRUNSWICK SUNNY 64 37 36 W7 30.10F SAINT SIMONS SUNNY 61 43 51 S5 30.11F $$ SCZ027-028-034-036>038-045-046-048>050-GAZ119-141-172000- ...LAKE AND SUPPLEMENTAL COASTAL OBSERVATIONS... STATION/POSITION TIME TEMP WIND PRES WAVE SWELL AIR SEA DIR/SP/G HT/PER HT/PER/DIR (UTC) (F) (DEG/KT/KT) (MB) (FT/S) (FT/S/D) UPR LAKE MARION NOT AVBL WINYAH BAY 1900 58 130/ 7 1018.0S LAKE MURRAY 1800 55 190/ 7/ 8 1018.3F ACE BASIN NERRS 1900 61 230/ 2 1019.0S FORT PULASKI 1900 59 56 140/ 5/ 8 1019.6R SAPELO ISLAND 1900 63 180/ 4 1019.0F $$ ANZ835-935-AMZ111-154-330-350-352-354-370-450-454-472-172000- ...C-MAN AND BUOY OBSERVATIONS... STATION/POSITION TIME TEMP WIND PRES WAVE SWELL AIR SEA DIR/SP/G HT/PER HT/PER/DIR (UTC) (F) (DEG/KT/KT) (MB) (FT/S) (FT/S/D) BUOY 41004 1900 60 73 250/ 2/ 4 1018.7F 2/ 6 2/ 6 BUOY 41008 1900 53 59 250/ 4/ 6 1019.8F 1/11 2/110/11 FOLLY BEACH CMAN 1900 57 190/ 6/ 7 1019.4F CAPERS NEARSHORE 1800 58 180/ 4/ 6 N/A FRIPP NEARSHORE NOT AVBL STATION/POSITION TIME TEMP WIND PRES WAVE SWELL AIR SEA DIR/SP/G HT/PER HT/PER/DIR (UTC) (F) (DEG/KT/KT) (MB) (FT/S) (FT/S/D) 5E ST. MARYS GA 1900 61 N/A 1/11 FRYING PAN BUOY 1900 56 67 310/ 4/ 6 1018.8F 3/ 6 2/210/ 6 BUOY 41025 1900 54 1017.0S 3/ 8 CAPE LOOKOUT NC 1900 57 240/ 7/ 9 1016.9F BUOY 41002 1756 68 73 330/ 8/ 12 1017.1F 7/ 8 7/280/ 8 BUOY 41010 1900 71 76 290/ 14/ 17 1018.9F 4/ 6 2/ 60/10 ST AUGUSTINE FL 1900 59 60/ 4/ 5 1020.3F $$

USA.gov is the U.S. government's official web portal to all federal, state and local government web resources and services.